GFSFLT2_prec_cthk_000.txt.gz
RH
30 32 34 31 28 25 23 21 19 20 23 25 18 17 18 18 17 15 12 11 14 17 18 19 22 26 28 31 36 40 40 52
37 37 37 32 24 18 13 13 14 17 19 18 14 14 16 14 11 8 9 10 10 12 12 11 11 13 17 23 31 37 45 55
33 29 22 17 14 12 10 10 12 16 19 18 18 20 22 19 15 13 14 13 13 12 12 13 14 15 18 22 28 33 39 44
26 29 23 18 16 14 12 11 15 20 23 25 24 24 23 23 21 21 20 18 17 16 15 15 16 17 20 23 26 30 34 37
32 33 25 22 20 21 19 18 22 27 30 29 29 27 26 25 25 25 25 24 23 23 21 20 21 21 21 22 22 22 25 32
37 30 26 24 25 27 27 27 29 32 34 34 33 33 32 32 31 31 30 29 29 29 28 27 26 26 26 26 26 25 23 23
35 30 29 29 28 28 28 29 32 35 38 39 40 41 41 40 38 38 38 37 37 36 35 33 30 28 28 28 27 27 27 27
32 30 31 32 33 33 34 36 38 40 41 43 45 45 44 43 42 42 41 41 42 42 42 40 38 36 35 35 34 33 32 32
37 37 38 39 37 37 38 39 38 39 40 42 44 44 44 43 43 42 42 43 43 43 43 43 43 43 44 43 42 41 40 37
39 41 41 41 41 43 43 44 43 42 41 41 41 41 42 43 43 44 45 46 46 47 47 47 47 48 49 49 49 47 46 45
43 43 43 44 47 47 46 46 46 45 42 42 42 41 42 43 44 46 47 48 48 48 49 49 50 51 51 51 52 52 52 50
46 48 47 49 51 51 50 50 49 47 45 44 44 45 45 45 46 47 49 49 49 49 50 50 52 52 53 54 54 55 55 55
49 50 52 54 55 55 55 54 51 49 48 46 47 48 49 50 48 48 50 51 53 53 52 52 52 53 53 53 53 53 54 55
54 54 59 59 60 58 57 56 56 55 55 52 49 48 47 49 50 50 49 50 51 52 53 55 55 56 53 52 50 50 51 51
61 61 61 60 60 61 59 56 57 56 56 55 54 50 47 47 49 51 51 52 51 51 52 53 54 53 56 57 52 48 46 45
59 60 59 59 58 57 56 55 55 56 57 54 52 50 48 48 49 51 54 57 56 55 55 60 60 60 65 61 57 52 49 46
60 62 61 58 57 58 57 56 58 55 52 48 48 47 49 48 48 48 47 49 50 53 59 61 62 64 69 69 67 60 54 54
63 63 61 58 59 61 62 61 55 50 49 45 42 39 36 35 36 37 38 41 43 50 58 60 66 66 68 71 71 66 66 67
67 68 65 63 63 62 60 59 58 52 45 38 35 34 32 30 30 30 33 36 41 47 56 62 63 74 78 90 80 76 79 82
71 70 71 69 63 58 56 55 53 47 41 38 36 36 35 30 32 34 38 43 48 56 61 68 72 90 84 95 91 97 96 89

GFSFLT2_prec_cthk_003.txt.gz
RH
26 31 31 30 27 24 19 16 14 14 18 19 13 12 14 15 15 11 8 8 10 12 14 15 13 16 21 24 26 29 33 37
34 30 25 18 14 11 9 9 11 13 16 16 14 14 17 19 16 13 12 12 12 12 12 12 12 12 14 18 21 27 33 37
32 26 20 15 13 11 8 8 11 14 18 20 21 21 21 22 20 19 19 18 16 15 15 13 13 15 16 18 21 25 28 33
27 26 20 18 18 18 17 15 18 22 25 27 28 28 26 25 24 24 24 24 23 21 20 18 16 16 16 18 21 24 27 30
30 31 24 24 26 27 28 26 25 26 28 30 31 31 30 31 30 31 31 31 32 31 30 28 24 23 22 21 20 20 20 19
35 33 27 27 27 28 30 30 32 34 36 38 39 39 39 40 40 39 36 35 36 36 37 38 36 33 28 25 24 23 23 23
37 32 28 30 32 33 35 36 37 37 38 39 41 42 42 43 42 42 41 41 41 41 42 42 41 40 37 34 31 29 29 28
42 36 34 35 36 38 40 40 40 39 40 40 39 40 40 40 40 39 40 40 41 41 42 43 42 42 41 41 40 39 37 36
43 36 36 37 40 42 42 42 41 41 40 39 39 39 39 38 38 39 39 41 42 43 43 44 43 43 44 45 46 46 45 44
45 41 42 42 44 46 48 47 45 44 43 41 40 40 40 41 41 42 43 43 44 44 45 45 46 46 47 48 48 49 49 49
45 45 46 47 49 50 52 51 50 50 50 47 48 47 46 44 46 46 46 45 46 46 46 46 46 46 47 49 49 50 49 50
46 46 49 52 52 54 57 54 52 51 50 50 49 48 48 47 43 42 45 46 46 46 47 48 48 47 47 48 49 51 51 51
48 51 53 54 57 58 57 56 54 52 49 50 51 49 48 48 45 43 42 42 45 47 48 50 49 52 53 53 50 49 50 51
53 55 57 60 61 61 57 54 53 53 54 53 51 51 49 46 43 43 43 43 45 48 50 51 51 52 52 53 52 53 55 52
60 60 60 60 61 60 58 57 57 58 57 55 53 52 49 47 45 45 45 44 44 47 51 52 54 55 56 54 53 50 53 55
63 64 63 62 63 64 63 61 57 57 55 53 50 50 47 45 39 35 34 34 34 37 42 44 52 59 59 61 56 58 55 50
62 65 68 69 69 69 66 65 63 59 55 50 48 42 36 33 32 30 29 27 26 26 27 30 36 45 55 60 62 59 61 57
69 71 72 72 70 67 66 64 63 60 57 51 45 41 38 37 35 33 29 27 27 29 30 32 33 37 43 48 62 61 59 59
73 74 71 67 68 70 69 66 60 54 49 46 44 42 41 41 40 38 35 28 26 29 33 37 43 50 53 56 63 72 68 65
71 69 68 71 74 70 69 66 63 55 55 52 48 42 41 43 42 42 42 41 44 43 48 52 54 62 65 68 75 88 83 87

GFSFLT2_prec_cthk_006.txt.gz
RH
27 25 22 21 19 15 11 12 13 14 17 19 15 13 15 17 17 15 11 11 12 13 14 14 12 11 10 11 15 21 32 36
30 26 18 14 12 9 8 9 11 13 17 19 18 18 20 22 22 19 18 17 15 14 14 14 14 13 13 15 17 20 29 34
29 21 16 16 16 14 11 11 14 17 20 23 25 28 26 27 26 24 24 24 24 24 23 19 16 14 14 16 19 28 28 32
25 22 19 20 22 24 25 24 28 27 28 27 30 30 31 31 30 29 29 31 30 30 30 29 29 30 26 20 22 21 25 28
29 29 24 26 29 33 35 34 34 36 34 36 39 38 42 43 44 44 43 40 42 40 39 41 37 36 38 31 27 23 25 26
33 34 28 29 33 37 40 42 43 44 47 43 47 47 48 48 48 47 47 47 45 47 47 42 41 40 39 38 35 33 32 30
39 40 31 33 35 42 43 44 46 44 47 48 45 45 45 44 43 43 43 44 45 46 46 45 42 42 42 40 40 39 37 38
46 45 36 36 40 41 45 45 47 47 47 45 40 41 44 43 43 43 43 46 45 45 47 45 45 43 44 42 42 44 44 42
49 46 40 41 43 46 47 51 50 51 49 44 43 43 45 42 45 45 45 45 44 46 45 44 43 45 45 46 45 46 47 45
50 45 43 44 47 50 53 55 55 57 53 49 47 47 45 44 48 46 45 44 45 45 45 44 44 43 42 44 45 46 46 47
49 45 47 48 50 54 55 57 59 58 56 53 51 49 48 47 45 45 45 44 42 42 43 43 43 43 44 44 43 42 44 46
53 48 48 51 56 56 58 60 58 58 56 53 52 52 49 48 48 46 47 48 46 46 44 44 46 44 44 43 44 46 46 45
55 53 52 57 60 61 64 62 61 61 61 58 56 54 52 52 51 50 47 47 46 43 44 44 43 47 47 45 44 46 47 47
56 56 59 63 66 66 66 67 65 64 64 64 63 62 60 53 48 44 43 41 39 39 39 39 41 45 48 50 48 49 50 47
60 64 66 66 67 68 68 68 68 67 66 63 63 60 54 49 43 38 34 34 35 34 35 35 39 40 46 50 49 50 56 55
65 66 66 65 66 66 67 67 67 65 65 66 64 56 51 44 38 36 34 35 38 38 39 40 42 38 44 44 49 47 54 59
63 63 64 64 65 67 69 69 67 70 71 65 57 51 43 42 41 39 36 35 36 33 32 37 37 38 43 43 41 55 51 59
64 66 68 69 71 71 72 73 77 72 65 58 50 47 51 50 44 39 37 35 34 32 32 31 32 36 41 45 46 46 53 55
67 73 75 77 81 81 82 78 70 62 53 50 50 52 49 45 38 37 36 35 37 40 42 44 43 41 44 50 56 59 63 65
68 73 80 82 78 71 67 63 58 56 56 55 53 51 48 41 40 42 47 48 50 52 58 60 62 62 64 63 65 72 77 79

GFSFLT2_prec_cthk_009.txt.gz
RH
30 25 18 16 14 11 9 11 12 13 16 20 21 17 17 20 22 20 18 16 16 15 13 12 13 13 12 13 14 15 19 41
34 29 24 23 14 7 6 8 11 14 19 21 22 23 25 24 26 24 23 23 23 23 22 22 20 15 14 14 14 19 27 37
35 28 24 23 25 18 18 17 19 22 25 26 29 42 40 42 36 30 28 28 29 28 28 28 28 30 30 24 18 27 28 36
33 28 22 23 27 31 34 34 40 39 40 44 53 49 48 44 44 42 41 41 39 42 40 38 41 45 44 40 40 38 27 34
37 27 26 29 34 39 46 48 46 48 50 51 52 51 57 56 56 54 51 47 49 48 50 50 47 44 43 42 44 40 41 41
39 33 28 30 40 48 49 53 49 50 50 51 51 51 52 51 50 48 48 50 49 49 49 49 45 43 42 41 42 42 43 43
53 46 34 39 41 49 49 51 54 50 54 51 48 46 48 49 49 48 47 48 51 48 47 47 45 44 44 44 44 43 43 43
56 59 49 45 45 48 53 53 55 57 56 52 49 50 49 48 48 50 48 46 45 45 45 43 41 40 40 41 43 44 45 47
66 62 54 46 47 52 55 55 54 57 58 55 51 49 50 47 49 51 50 48 46 46 45 45 45 42 40 40 39 39 39 41
64 63 54 48 52 54 58 60 59 62 62 57 55 51 51 50 49 48 48 45 47 47 45 48 48 47 44 41 38 38 38 37
63 63 52 53 55 59 62 63 63 65 62 62 60 56 57 55 54 53 52 51 49 48 46 45 46 45 45 44 41 41 41 41
62 66 55 56 60 61 64 66 67 69 68 65 63 61 59 56 57 56 54 51 51 49 47 47 45 45 43 43 42 40 39 40
63 63 55 58 63 66 69 69 71 72 70 67 66 64 60 58 58 55 52 48 44 38 36 34 35 37 41 41 40 39 42 43
57 58 61 63 66 72 70 69 71 72 72 70 69 66 67 64 59 54 50 43 39 39 37 37 37 40 42 43 47 46 46 49
60 65 67 68 71 70 71 71 71 72 72 71 71 72 67 63 58 51 45 44 43 44 44 44 41 39 43 46 51 50 51 48
66 69 69 68 69 70 71 74 74 76 77 76 74 75 65 57 52 46 48 46 43 42 41 38 37 34 36 41 43 45 57 57
68 67 66 67 66 70 74 76 79 88 86 76 73 68 59 54 49 46 46 44 41 41 41 42 42 42 44 45 44 41 51 58
66 67 68 68 73 76 78 78 75 71 64 63 61 55 47 46 45 48 48 52 51 47 48 48 45 44 44 44 45 45 46 48
64 68 71 72 72 68 62 61 63 64 63 58 49 46 47 50 52 54 55 57 58 57 58 54 58 53 53 55 53 58 59 61
64 67 68 68 64 63 64 63 65 62 58 55 55 53 50 52 51 49 52 53 58 60 61 55 57 63 65 70 69 74 78 86